[[{"header":{"parameterUnit":"m.s-1","parameterCategory":2,"la1":30.2991,"la2":30.254,"lo1":-89.0895,"lo2":-89.0444,"dy":0.0017,"dx":0.0017,"nx":28,"ny":28,"refTime":"2024-04-27T21:00:00:Z","depth":"0","parameterNumber":2,"parameterNumberName":"U-component_of_CURRENTS"},"data":[0,0,0,0,0,0,0,0,0,0,0,0,0,0,0,0,0,0,0,0,0,0,0,0,0,0,0,0,0,0,0,0,0,0,0,0,0,0,0,0,0,0,0,0,0,0,0,0,0,0,0,0,0,0,0,0,0,0,0.1901,0.1901,0,0.1898,0.1897,0.1897,0.1879,0.1879,0.1879,0.1878,0.1857,0.1857,0.1857,0,0,0,0,0,0,0,0,0,0,0,0,0,0.1915,0.1915,0.1901,0.1901,0.1901,0.1898,0.1897,0.1897,0.1879,0.1879,0.1879,0.1878,0.1857,0.1857,0.1857,0,0,0,0,0,0,0,0,0,0,0,0,0,0.1909,0.1915,0.1901,0.1892,0.1892,0.1898,0.1897,0.1897,0.188,0.1879,0.1878,0.1878,0.1857,0.1857,0.1857,0.1866,0,0,0.1856,0.1856,0,0,0,0,0,0,0,0,0.191,0.1909,0.1894,0.1893,0.1892,0.1889,0.1895,0.1886,0.188,0.1883,0.1878,0.1878,0.1867,0.1866,0.1866,0.1865,0.1864,0.1856,0.1856,0.1855,0.1855,0,0,0,0,0,0,0,0.191,0.1909,0.1899,0.1894,0.1893,0.1896,0.1895,0.1893,0.1878,0.1883,0.1882,0.1883,0.1866,0.1866,0.1865,0.1864,0.1856,0.1855,0.1855,0.1855,0.1888,0.1889,0,0,0,0,0,0,0.1911,0.1909,0.1899,0.1899,0.19,0.1896,0.1894,0.189,0.1878,0.1876,0.1883,0.1882,0.1867,0.1866,0.1864,0.1899,0.1855,0.1855,0.1855,0.1887,0.1888,0.1889,0,0,0,0,0,0,0.1911,0.191,0.1899,0.1905,0.1904,0.1897,0.1892,0.189,0.1894,0.1878,0.1876,0.1889,0.1867,0.1865,0.187,0.1897,0.1855,0.1855,0.1886,0.1887,0.1889,0.1952,0,0,0,0,0,0,0.1912,0.191,0.1912,0.1905,0.1904,0.1909,0.1892,0.1891,0.1895,0.1894,0.1883,0.188,0.1866,0.1871,0.187,0.1896,0.1854,0.1884,0.1886,0.1888,0.1948,0.1955,0.1961,0,0,0,0,0,0.1912,0.1915,0.1912,0.1911,0.1904,0.191,0.191,0.1903,0.1896,0.1903,0.1895,0.188,0.1883,0.1871,0.187,0.1896,0.1883,0.1886,0.1888,0.1946,0.1954,0.1961,0,0,0,0,0,0,0.1923,0.1913,0.1909,0.1909,0.1913,0.1907,0.1913,0.191,0.191,0.1906,0.1891,0.1888,0.1904,0.1891,0.1879,0.1912,0.1882,0.1884,0.1926,0.1934,0.194,0.193,0.1854,0,0,0,0,0,0.1927,0.1923,0.1921,0.1921,0.1926,0.1922,0.1925,0.1919,0.1917,0.1916,0.1909,0.1905,0.1913,0.1915,0.1913,0.193,0.1913,0.1947,0.1954,0.1959,0.1951,0.1944,0.1949,0.1897,0.1897,0.1897,0,0,0.1931,0.1925,0.1924,0.1924,0.1925,0.194,0.1922,0.1928,0.1943,0.1914,0.1931,0.1925,0.1922,0.1941,0.1948,0.1934,0.1971,0.1962,0.1967,0.1955,0.1947,0.1952,0.1957,0.1899,0.1898,0.1898,0,0,0.1944,0.1935,0.1942,0.1948,0.1952,0.1952,0.1958,0.1957,0.1961,0.1979,0.1964,0.197,0.1982,0.1981,0.1985,0.2026,0.2003,0.2033,0.206,0.2056,0.2059,0.2062,0.207,0.2073,0.2039,0.2039,0.2039,0,0.1945,0.1959,0.1947,0.1961,0.1968,0.1962,0.1979,0.199,0.1991,0.1995,0.1993,0.2003,0.2002,0.2023,0.2042,0.204,0.2035,0.2033,0.2063,0.2066,0.2068,0.2074,0.2077,0.2042,0.2042,0.2041,0.2041,0,0.1975,0.1984,0.1991,0.2004,0.2009,0.2023,0.2032,0.2041,0.2047,0.2052,0.2069,0.2065,0.2065,0.2081,0.2078,0.2098,0.209,0.2071,0.2043,0.2077,0.2082,0.2083,0.2047,0.2046,0.2045,0.2044,0,0,0.197,0.2004,0.2008,0.2015,0.2032,0.2033,0.2063,0.2081,0.2089,0.2106,0.2112,0.2144,0.2126,0.2128,0.2122,0.2127,0.2155,0.2112,0.211,0.2117,0.2154,0.2134,0.2134,0.2141,0.2141,0.2142,0.216,0,0.1996,0.2032,0.2042,0.2068,0.208,0.2082,0.2104,0.2114,0.2125,0.213,0.2138,0.2143,0.2152,0.2146,0.2157,0.2142,0.2158,0.2152,0.212,0.2119,0.2095,0.2134,0.1988,0.199,0.2161,0.2161,0.2161,0,0.2016,0.2037,0.2073,0.2083,0.2089,0.21,0.2107,0.2128,0.2141,0.2147,0.2155,0.2151,0.2164,0.2157,0.2169,0.2164,0.2168,0.2164,0.2164,0.2117,0.2101,0.1978,0.1986,0.186,0.2163,0.2163,0.2163,0,0.2002,0.2044,0.2071,0.208,0.2104,0.2107,0.2115,0.2127,0.2126,0.2147,0.2137,0.2159,0.2146,0.2161,0.2172,0.2167,0.2177,0.2163,0.2154,0.2153,0.2006,0.1992,0.1879,0.2174,0.2174,0.2174,0.2174,0,0.201,0.202,0.2065,0.2074,0.2076,0.2097,0.2088,0.2103,0.2109,0.2095,0.2135,0.2114,0.2144,0.2152,0.2171,0.2172,0.218,0.2162,0.2155,0.2028,0.2016,0.1881,0.183,0.2174,0.2174,0.2174,0.2174,0,0.1973,0.2016,0.2023,0.2059,0.2062,0.2053,0.2045,0.2039,0.2066,0.2043,0.2046,0.2072,0.2086,0.2126,0.2142,0.2156,0.2077,0.217,0.2032,0.2008,0.1874,0.1834,0.1712,0.1674,0.2152,0.2151,0.2151,0,0.196,0.1972,0.1989,0.1977,0.1985,0.1981,0.197,0.2,0.199,0.2006,0.1985,0.2007,0.1993,0.2036,0.2058,0.2094,0.203,0.2004,0.1967,0.1848,0.1797,0.1757,0.1732,0.1806,0.1803,0.1801,0.1799,0,0.1925,0.1928,0.1931,0.1905,0.189,0.1865,0.1858,0.184,0.1875,0.1862,0.1843,0.1839,0.1884,0.1844,0.1919,0.1929,0.1847,0.1953,0.184,0.1529,0.1461,0.1426,0.1833,0.1776,0.1778,0.178,0.1781,0.1782,0.1876,0.1853,0.1851,0.1799,0.1787,0.1733,0.1674,0.168,0.164,0.1595,0.1672,0.1626,0.165,0.1712,0.1719,0.1616,0.1685,0.1537,0.1506,0.1485,0.1408,0.1788,0.1718,0.172,0.1721,0.1723,0.1724,0,0.1786,0.1768,0.1741,0.1671,0.1607,0.1629,0.158,0.1508,0.1426,0.1439,0.141,0.137,0.1316,0.1343,0.1281,0.1175,0.1146,0.1103,0.0967,0.0977,0.1295,0.1238,0.1044,0.1045,0.1045,0.1045,0.1045,0.1045,0.1743,0.1672,0.1643,0.15,0.1454,0.1334,0.1278,0.1205,0.1184,0.109,0.1054,0.1084,0.108,0.0939,0.0777,0.0751,0.0653,0.058,0.0648,0.0793,0.083,0.0864,0.0797,0.0514,0.0514,0.0268,0.0266,0.0264]},{"header":{"parameterUnit":"m.s-1","parameterCategory":2,"la1":30.2991,"la2":30.254,"lo1":-89.0895,"lo2":-89.0444,"dy":0.0017,"dx":0.0017,"nx":28,"ny":28,"refTime":"2024-04-27T21:00:00:Z","depth":"0","parameterNumber":3,"parameterNumberName":"V-component_of_CURRENTS"},"data":[0,0,0,0,0,0,0,0,0,0,0,0,0,0,0,0,0,0,0,0,0,0,0,0,0,0,0,0,0,0,0,0,0,0,0,0,0,0,0,0,0,0,0,0,0,0,0,0,0,0,0,0,0,0,0,0,0,0,0.0109,0.0109,0,0.0095,0.0094,0.0094,0.0086,0.0086,0.0086,0.0086,0.0058,0.0057,0.0056,0,0,0,0,0,0,0,0,0,0,0,0,0,0.0114,0.0114,0.0109,0.0109,0.0109,0.0095,0.0094,0.0094,0.0086,0.0086,0.0086,0.0086,0.0058,0.0057,0.0056,0,0,0,0,0,0,0,0,0,0,0,0,0,0.0107,0.0114,0.0109,0.0104,0.0103,0.0095,0.0094,0.0094,0.0086,0.0086,0.0086,0.0086,0.0058,0.0057,0.0056,0.0048,0,0,0.0052,0.0052,0,0,0,0,0,0,0,0,0.0107,0.0106,0.0105,0.0104,0.0103,0.0093,0.0086,0.0078,0.0086,0.0092,0.0086,0.0086,0.0069,0.0067,0.0063,0.0046,0.0045,0.0052,0.0052,0.0051,0.0051,0,0,0,0,0,0,0,0.0108,0.0107,0.0103,0.0105,0.0104,0.0097,0.0096,0.0084,0.0079,0.0091,0.0091,0.009,0.0068,0.0064,0.0062,0.0045,0.0052,0.0051,0.0051,0.005,0.0031,0.0032,0,0,0,0,0,0,0.0112,0.0107,0.0103,0.0102,0.0106,0.0097,0.0096,0.0096,0.008,0.0078,0.009,0.009,0.0066,0.0064,0.0061,0.0066,0.0051,0.005,0.0049,0.0031,0.0031,0.0032,0,0,0,0,0,0,0.0112,0.0111,0.0104,0.0105,0.0104,0.0097,0.0097,0.0095,0.0094,0.0079,0.0077,0.0091,0.0066,0.0063,0.0059,0.0065,0.0049,0.0048,0.0031,0.0031,0.0032,0.0066,0,0,0,0,0,0,0.0112,0.0112,0.0112,0.0105,0.0104,0.0105,0.0097,0.0095,0.0094,0.0094,0.0079,0.0076,0.0066,0.0061,0.0058,0.0063,0.0047,0.0031,0.0031,0.0031,0.0065,0.0068,0.007,0,0,0,0,0,0.0112,0.0113,0.0113,0.0112,0.0105,0.0105,0.0104,0.0099,0.0094,0.0097,0.0089,0.0077,0.0061,0.006,0.0057,0.0061,0.003,0.0031,0.0031,0.0064,0.0067,0.007,0,0,0,0,0,0,0.0115,0.0112,0.0111,0.0111,0.0112,0.0105,0.0105,0.0101,0.0096,0.0096,0.008,0.0077,0.0076,0.0063,0.0062,0.0057,0.0043,0.0043,0.0069,0.0072,0.0075,0.0089,0.0046,0,0,0,0,0,0.0117,0.0117,0.0116,0.0116,0.0118,0.0112,0.0111,0.0109,0.0104,0.0102,0.0091,0.008,0.0074,0.007,0.006,0.0057,0.005,0.0057,0.006,0.0062,0.0071,0.0061,0.0064,0.0033,0.0033,0.0033,0,0,0.0118,0.0116,0.0116,0.0116,0.0115,0.0124,0.0111,0.0114,0.0123,0.0099,0.0103,0.0089,0.0075,0.0074,0.0071,0.0065,0.0067,0.0063,0.0065,0.0073,0.0062,0.0065,0.0068,0.0034,0.0034,0.0033,0,0,0.0124,0.012,0.0126,0.0129,0.0133,0.0131,0.0134,0.0131,0.0132,0.0135,0.012,0.0112,0.0099,0.0092,0.0087,0.0098,0.0082,0.0091,0.0117,0.0107,0.011,0.0112,0.0111,0.0113,0.0092,0.0092,0.0093,0,0.0125,0.0135,0.0128,0.0139,0.0145,0.0138,0.0153,0.0153,0.0149,0.0154,0.0143,0.0128,0.0111,0.0115,0.0118,0.0105,0.0099,0.0106,0.0111,0.0113,0.0115,0.0113,0.0115,0.0094,0.0094,0.0094,0.0094,0,0.0141,0.0151,0.0156,0.0168,0.0173,0.0183,0.0187,0.0193,0.019,0.019,0.0192,0.0169,0.0161,0.0151,0.0138,0.0142,0.0134,0.0116,0.0105,0.012,0.0117,0.0118,0.0097,0.0096,0.0096,0.0095,0,0,0.0147,0.0164,0.0168,0.0182,0.0192,0.0199,0.0216,0.0232,0.0251,0.0237,0.0254,0.0233,0.0217,0.021,0.0186,0.0177,0.0179,0.0154,0.0153,0.0158,0.0166,0.0198,0.0202,0.016,0.0161,0.0161,0.0161,0,0.0167,0.0193,0.0197,0.0226,0.0243,0.0244,0.0263,0.0274,0.0281,0.0294,0.0274,0.0276,0.0241,0.0236,0.0221,0.0192,0.0183,0.0182,0.0147,0.0146,0.0176,0.0205,0.0278,0.0288,0.0162,0.0162,0.0162,0,0.0192,0.0206,0.0237,0.0263,0.0272,0.0287,0.0319,0.0334,0.0351,0.0355,0.0351,0.0334,0.0321,0.0284,0.0248,0.0249,0.0212,0.0187,0.0185,0.0206,0.0181,0.0251,0.0294,0.0307,0.0163,0.0163,0.0163,0,0.0211,0.0238,0.0264,0.0273,0.0299,0.0316,0.0331,0.0354,0.038,0.0392,0.0411,0.0386,0.038,0.0333,0.0281,0.0263,0.0245,0.0209,0.0206,0.0207,0.026,0.0267,0.0318,0.0184,0.0184,0.0184,0.0184,0,0.0238,0.026,0.0276,0.0293,0.0328,0.0337,0.038,0.0394,0.0425,0.0466,0.044,0.0466,0.0391,0.0372,0.031,0.0277,0.0266,0.0225,0.0215,0.0275,0.0282,0.0286,0.0261,0.0184,0.0184,0.0184,0.0184,0,0.0259,0.0271,0.0303,0.0331,0.034,0.0366,0.0411,0.045,0.0469,0.0521,0.0528,0.0529,0.0515,0.0449,0.0383,0.0326,0.0296,0.0265,0.0348,0.0348,0.0356,0.0329,0.0339,0.0353,0.0266,0.0267,0.0267,0,0.0273,0.0291,0.0326,0.0355,0.037,0.0406,0.0443,0.0469,0.0515,0.0569,0.0602,0.0606,0.0627,0.0556,0.0479,0.0403,0.0354,0.0391,0.0366,0.0388,0.0348,0.0316,0.0325,0.0447,0.0449,0.0451,0.0453,0,0.0301,0.0313,0.0339,0.0391,0.0433,0.0473,0.0523,0.056,0.0605,0.0652,0.0714,0.0735,0.071,0.0687,0.0591,0.0531,0.0429,0.0424,0.0426,0.0488,0.0478,0.0477,0.0414,0.0468,0.0467,0.0466,0.0465,0.0464,0.0323,0.0348,0.0388,0.0433,0.048,0.0533,0.056,0.0625,0.0688,0.0753,0.0788,0.0841,0.0843,0.0747,0.0675,0.0617,0.0548,0.0577,0.0539,0.0504,0.0534,0.0514,0.0565,0.0564,0.0563,0.0562,0.0562,0,0.036,0.0387,0.0431,0.0483,0.0527,0.0546,0.0612,0.0636,0.0702,0.0804,0.0856,0.0949,0.0938,0.0885,0.0816,0.0747,0.0704,0.0699,0.0681,0.068,0.0661,0.0689,0.0795,0.0795,0.0795,0.0795,0.0795,0.0795,0.0386,0.043,0.0443,0.0508,0.0541,0.058,0.0606,0.065,0.0721,0.0832,0.0924,0.0998,0.1061,0.0915,0.0857,0.0827,0.0781,0.0762,0.0705,0.0707,0.0693,0.068,0.0702,0.081,0.081,0.0776,0.0775,0.0775]}],[{"header":{"parameterUnit":"m.s-1","parameterCategory":2,"la1":30.2991,"la2":30.254,"lo1":-89.0895,"lo2":-89.0444,"dy":0.0017,"dx":0.0017,"nx":28,"ny":28,"refTime":"2024-04-27T21:00:00:Z","depth":"2","parameterNumber":2,"parameterNumberName":"U-component_of_CURRENTS"},"data":[0,0,0,0,0,0,0,0,0,0,0,0,0,0,0,0,0,0,0,0,0,0,0,0,0,0,0,0,0,0,0,0,0,0,0,0,0,0,0,0,0,0,0,0,0,0,0,0,0,0,0,0,0,0,0,0,0,0,0.191,0.191,0,0.191,0.191,0.191,0.1895,0.1895,0.1894,0.1894,0.1875,0.1875,0.1874,0,0,0,0,0,0,0,0,0,0,0,0,0,0.1922,0.1922,0.191,0.191,0.191,0.191,0.191,0.191,0.1895,0.1895,0.1894,0.1894,0.1875,0.1875,0.1874,0,0,0,0,0,0,0,0,0,0,0,0,0,0.1919,0.1922,0.191,0.1903,0.1902,0.191,0.191,0.191,0.1895,0.1895,0.1894,0.1894,0.1875,0.1875,0.1874,0.1884,0,0,0.1874,0.1873,0,0,0,0,0,0,0,0,0.1919,0.1918,0.1904,0.1903,0.1903,0.1902,0.1907,0.19,0.1895,0.1898,0.1894,0.1893,0.1883,0.1882,0.1883,0.1883,0.1882,0.1873,0.1873,0.1873,0.1873,0,0,0,0,0,0,0,0.1919,0.1918,0.191,0.1904,0.1903,0.1908,0.1907,0.1906,0.1893,0.1898,0.1897,0.1897,0.1882,0.1883,0.1882,0.1882,0.1873,0.1873,0.1873,0.1873,0.1907,0.1908,0,0,0,0,0,0,0.1919,0.1918,0.191,0.191,0.191,0.1908,0.1907,0.1903,0.1893,0.1891,0.1897,0.1896,0.1884,0.1883,0.1881,0.1918,0.1873,0.1873,0.1873,0.1906,0.1908,0.1909,0,0,0,0,0,0,0.1919,0.1918,0.191,0.1914,0.1914,0.1908,0.1904,0.1903,0.1909,0.1893,0.1891,0.1905,0.1883,0.1882,0.1888,0.1916,0.1873,0.1873,0.1905,0.1907,0.1908,0.1973,0,0,0,0,0,0,0.1919,0.1918,0.1921,0.1914,0.1913,0.1919,0.1905,0.1903,0.191,0.1908,0.1899,0.1896,0.1883,0.1889,0.1888,0.1914,0.1872,0.1904,0.1906,0.1908,0.197,0.1977,0.1983,0,0,0,0,0,0.192,0.1923,0.1921,0.1921,0.1916,0.192,0.192,0.1914,0.1911,0.1917,0.1912,0.1897,0.1901,0.1889,0.1888,0.1915,0.1903,0.1905,0.1907,0.1967,0.1976,0.1983,0,0,0,0,0,0,0.1932,0.1922,0.192,0.1921,0.1923,0.1917,0.1923,0.1922,0.1924,0.1921,0.1908,0.1906,0.1922,0.1909,0.1897,0.1931,0.1901,0.1903,0.1946,0.1954,0.1961,0.1949,0.1872,0,0,0,0,0,0.1936,0.1932,0.1931,0.1931,0.1935,0.1932,0.1936,0.1931,0.1929,0.1929,0.1925,0.1923,0.1932,0.1934,0.1932,0.1951,0.1932,0.1968,0.1975,0.198,0.197,0.1963,0.1968,0.1917,0.1917,0.1917,0,0,0.194,0.1934,0.1932,0.1933,0.1934,0.1949,0.1933,0.1937,0.1953,0.1927,0.1947,0.1943,0.1941,0.1961,0.1968,0.1954,0.1991,0.1983,0.1989,0.1975,0.1966,0.1971,0.1975,0.1918,0.1918,0.1918,0,0,0.1951,0.1943,0.195,0.1956,0.1959,0.1959,0.1965,0.1966,0.1971,0.1992,0.1979,0.1986,0.2002,0.2001,0.2006,0.2047,0.2025,0.2055,0.2082,0.2077,0.2081,0.2084,0.2091,0.2094,0.2061,0.2061,0.2061,0,0.1954,0.1966,0.1955,0.1969,0.1975,0.1969,0.1987,0.1999,0.2001,0.2007,0.2006,0.2022,0.2022,0.2043,0.2063,0.2062,0.2057,0.2055,0.2085,0.2087,0.2089,0.2095,0.2098,0.2065,0.2064,0.2064,0.2064,0,0.1981,0.1991,0.1997,0.2011,0.2016,0.2027,0.2038,0.2048,0.2057,0.2065,0.2085,0.2082,0.2085,0.2101,0.21,0.2119,0.2112,0.2093,0.2064,0.2098,0.2103,0.2105,0.207,0.2068,0.2067,0.2067,0,0,0.1977,0.2009,0.2012,0.202,0.2037,0.2037,0.2069,0.2089,0.2099,0.2119,0.2128,0.2162,0.2146,0.2149,0.2143,0.2148,0.2175,0.2133,0.2131,0.2139,0.2174,0.2154,0.2153,0.2163,0.2163,0.2163,0.2181,0,0.2001,0.2037,0.2046,0.2071,0.2084,0.2086,0.2111,0.2124,0.2137,0.2145,0.2153,0.2161,0.2171,0.2166,0.2177,0.2162,0.2178,0.2172,0.214,0.2139,0.2114,0.2153,0.1944,0.194,0.2182,0.2182,0.2182,0,0.2019,0.204,0.2077,0.2087,0.2093,0.2106,0.2116,0.2138,0.2155,0.2164,0.2173,0.2169,0.2181,0.2175,0.2187,0.2183,0.2187,0.2184,0.2184,0.2135,0.212,0.1939,0.1933,0.2184,0.2184,0.2184,0.2183,0,0.2007,0.2047,0.2074,0.2083,0.2109,0.2114,0.2122,0.2139,0.214,0.2162,0.2154,0.2175,0.2163,0.2178,0.2189,0.2185,0.2193,0.2181,0.2171,0.2171,0.1968,0.1949,0.219,0.219,0.219,0.219,0.219,0,0.2014,0.2025,0.2069,0.208,0.2082,0.2105,0.21,0.2116,0.2124,0.2112,0.2151,0.2131,0.216,0.2168,0.2188,0.2189,0.2197,0.2178,0.2171,0.199,0.1973,0.2156,0.2151,0.2191,0.2191,0.219,0.219,0,0.1979,0.2024,0.2031,0.2067,0.2071,0.2063,0.2057,0.2054,0.2083,0.2061,0.2062,0.2089,0.2103,0.2143,0.2158,0.2172,0.2184,0.2185,0.1984,0.1954,0.2167,0.2166,0.2167,0.2167,0.2166,0.2166,0.2165,0,0.197,0.1982,0.1999,0.199,0.1998,0.1995,0.1987,0.2018,0.2008,0.2024,0.2002,0.2024,0.2011,0.2052,0.2058,0.209,0.2163,0.1951,0.1907,0.217,0.2163,0.2163,0.2163,0.1671,0.1666,0.1663,0.166,0,0.194,0.1942,0.1943,0.1919,0.1908,0.1884,0.1878,0.1862,0.1896,0.1883,0.1863,0.1857,0.1888,0.1812,0.188,0.1877,0.1931,0.1882,0.2179,0.1725,0.1707,0.17,0.1714,0.1628,0.1631,0.1633,0.1635,0.1636,0.1893,0.1868,0.1864,0.1814,0.1806,0.1756,0.1697,0.1705,0.1666,0.1622,0.1689,0.1635,0.1664,0.1639,0.1611,0.1611,0.1754,0.1699,0.1707,0.1719,0.1675,0.1658,0.1562,0.1564,0.1567,0.1569,0.1571,0,0.1799,0.1784,0.1758,0.169,0.1628,0.1652,0.1606,0.1542,0.1461,0.1473,0.1437,0.1323,0.1265,0.1321,0.1251,0.1293,0.1248,0.1263,0.1172,0.1204,0.1233,0.1161,0.0914,0.0912,0.091,0.0909,0,0,0.1757,0.1684,0.1653,0.1519,0.1479,0.137,0.1316,0.1257,0.1241,0.1167,0.113,0.1185,0.1262,0.1064,0.1048,0.0965,0.1076,0.0926,0.1447,0.137,0.1396,0.1477,0.1403,0,0,0,0,0]},{"header":{"parameterUnit":"m.s-1","parameterCategory":2,"la1":30.2991,"la2":30.254,"lo1":-89.0895,"lo2":-89.0444,"dy":0.0017,"dx":0.0017,"nx":28,"ny":28,"refTime":"2024-04-27T21:00:00:Z","depth":"2","parameterNumber":3,"parameterNumberName":"V-component_of_CURRENTS"},"data":[0,0,0,0,0,0,0,0,0,0,0,0,0,0,0,0,0,0,0,0,0,0,0,0,0,0,0,0,0,0,0,0,0,0,0,0,0,0,0,0,0,0,0,0,0,0,0,0,0,0,0,0,0,0,0,0,0,0,0.0047,0.0047,0,0.0035,0.0035,0.0035,0.0028,0.0028,0.0028,0.0028,0.0001,0.0,-0.0,0,0,0,0,0,0,0,0,0,0,0,0,0,0.005,0.005,0.0047,0.0047,0.0047,0.0035,0.0035,0.0035,0.0028,0.0028,0.0028,0.0028,0.0001,0.0,-0.0,0,0,0,0,0,0,0,0,0,0,0,0,0,0.0044,0.005,0.0047,0.0042,0.0042,0.0035,0.0035,0.0035,0.0028,0.0028,0.0028,0.0028,0.0002,0.0001,-0.0001,-0.0008,0,0,-0.0004,-0.0004,0,0,0,0,0,0,0,0,0.0044,0.0044,0.0043,0.0043,0.0042,0.0034,0.0026,0.002,0.0028,0.0032,0.0028,0.0028,0.0011,0.0009,0.0006,-0.0009,-0.001,-0.0004,-0.0005,-0.0005,-0.0005,0,0,0,0,0,0,0,0.0045,0.0044,0.0042,0.0043,0.0043,0.0036,0.0035,0.0025,0.0021,0.0032,0.0032,0.0031,0.001,0.0007,0.0005,-0.001,-0.0004,-0.0005,-0.0005,-0.0006,-0.002,-0.002,0,0,0,0,0,0,0.0048,0.0045,0.0042,0.0042,0.0044,0.0036,0.0035,0.0036,0.0021,0.0019,0.0031,0.0031,0.0009,0.0007,0.0004,0.0012,-0.0005,-0.0006,-0.0007,-0.0021,-0.002,-0.002,0,0,0,0,0,0,0.0048,0.0048,0.0043,0.0043,0.0042,0.0036,0.0037,0.0036,0.0036,0.0021,0.0019,0.0033,0.0009,0.0006,0.0004,0.001,-0.0006,-0.0007,-0.0021,-0.002,-0.002,0.0016,0,0,0,0,0,0,0.0048,0.0048,0.005,0.0044,0.0042,0.0045,0.0037,0.0035,0.0036,0.0035,0.0022,0.0019,0.0009,0.0006,0.0003,0.0008,-0.0008,-0.0021,-0.0021,-0.002,0.0014,0.0018,0.002,0,0,0,0,0,0.0049,0.005,0.0051,0.005,0.0045,0.0045,0.0044,0.0039,0.0036,0.0039,0.0032,0.002,0.0007,0.0005,0.0002,0.0007,-0.0021,-0.0021,-0.002,0.0013,0.0017,0.002,0,0,0,0,0,0,0.0053,0.0049,0.005,0.0051,0.0052,0.0044,0.0045,0.0042,0.0039,0.0039,0.0024,0.0021,0.0021,0.0009,0.0008,0.0004,-0.001,-0.001,0.0016,0.002,0.0023,0.0036,-0.0009,0,0,0,0,0,0.0055,0.0053,0.0054,0.0054,0.0057,0.0052,0.0051,0.005,0.0046,0.0044,0.0035,0.0025,0.002,0.0017,0.0008,0.0006,-0.0002,0.0007,0.001,0.0012,0.0021,0.001,0.0013,-0.0018,-0.0018,-0.0018,0,0,0.0056,0.0054,0.0053,0.0055,0.0054,0.0065,0.0052,0.0054,0.0065,0.0041,0.0049,0.0035,0.0022,0.0022,0.0021,0.0014,0.0017,0.0013,0.0015,0.0023,0.0011,0.0014,0.0017,-0.0018,-0.0018,-0.0018,0,0,0.0061,0.0057,0.0064,0.0067,0.0071,0.0071,0.0074,0.0072,0.0075,0.008,0.0066,0.0059,0.0049,0.0042,0.0038,0.0051,0.0033,0.0044,0.007,0.0059,0.0062,0.0064,0.0061,0.0063,0.0045,0.0045,0.0045,0,0.0064,0.0074,0.0066,0.0077,0.0085,0.0077,0.0094,0.0096,0.0093,0.01,0.0088,0.0077,0.0061,0.0067,0.007,0.0058,0.0051,0.0059,0.0064,0.0066,0.0067,0.0064,0.0065,0.0047,0.0047,0.0047,0.0047,0,0.0081,0.0091,0.0095,0.0109,0.0115,0.0125,0.0131,0.0137,0.0137,0.0138,0.0142,0.012,0.0114,0.0104,0.0092,0.0096,0.0087,0.0069,0.0057,0.0073,0.0068,0.0069,0.005,0.0049,0.0049,0.0048,0,0,0.0089,0.0104,0.0108,0.0123,0.0134,0.0142,0.0162,0.018,0.02,0.0188,0.0206,0.0188,0.0171,0.0165,0.0142,0.0131,0.0132,0.0108,0.0106,0.0109,0.0116,0.0145,0.0148,0.0114,0.0114,0.0114,0.0109,0,0.011,0.0137,0.014,0.0171,0.019,0.0192,0.0213,0.0226,0.0233,0.0247,0.0227,0.023,0.0196,0.0191,0.0176,0.0145,0.0136,0.0136,0.0097,0.0096,0.0123,0.0151,0.0108,0.0104,0.011,0.011,0.011,0,0.0136,0.015,0.0184,0.0211,0.022,0.0238,0.0272,0.0289,0.0306,0.031,0.0306,0.0289,0.0275,0.0239,0.02,0.0202,0.0164,0.0137,0.0136,0.0153,0.0127,0.0087,0.0104,0.0111,0.0111,0.0111,0.0111,0,0.0156,0.0185,0.0212,0.0222,0.025,0.0269,0.0285,0.031,0.0335,0.0348,0.0364,0.034,0.0332,0.0285,0.023,0.0213,0.019,0.0156,0.0149,0.015,0.0103,0.0101,0.0129,0.0129,0.0129,0.0129,0.0129,0,0.018,0.0207,0.0225,0.0243,0.0281,0.0291,0.0336,0.0351,0.0381,0.042,0.0394,0.0417,0.0342,0.032,0.0257,0.022,0.0209,0.0168,0.0156,0.0116,0.0115,0.0108,0.0106,0.0129,0.0129,0.0129,0.0129,0,0.0203,0.0215,0.0253,0.0283,0.0294,0.0323,0.0367,0.0406,0.0424,0.0473,0.0479,0.0476,0.0458,0.0391,0.0322,0.0267,0.0217,0.0201,0.0168,0.0154,0.0175,0.0174,0.0195,0.0196,0.0197,0.0198,0.0199,0,0.022,0.0239,0.0278,0.0307,0.0324,0.0363,0.04,0.0426,0.0468,0.0517,0.0547,0.0546,0.0558,0.0482,0.0378,0.0292,0.0267,0.0199,0.0161,0.0198,0.0184,0.0182,0.018,0.0104,0.0104,0.0104,0.0104,0,0.0254,0.0267,0.0294,0.0345,0.0387,0.0427,0.0477,0.0511,0.0552,0.0592,0.0646,0.0658,0.0603,0.0502,0.0394,0.0325,0.0211,0.0197,0.0235,0.0109,0.0116,0.0101,0.0101,0.0103,0.0103,0.0103,0.0103,0.0103,0.0283,0.0306,0.0342,0.0387,0.0433,0.0482,0.0509,0.0551,0.0604,0.0619,0.0673,0.0648,0.0583,0.0415,0.0333,0.0226,0.0249,0.0167,0.0165,0.0164,0.0169,0.0179,0.0178,0.0179,0.0179,0.0179,0.018,0,0.0313,0.0342,0.0386,0.0433,0.0465,0.0495,0.0555,0.0541,0.0571,0.059,0.0601,0.0496,0.0434,0.0357,0.02,0.0143,0.0105,0.0106,0.0051,0.0054,0.0056,0.0053,0.0033,0.0032,0.0032,0.0031,0,0,0.0335,0.0371,0.0381,0.0433,0.0472,0.0485,0.0508,0.0483,0.0472,0.0434,0.0412,0.0431,0.0406,0.0252,0.0178,0.0092,0.0076,0.007,0.0192,0.0137,0.0139,0.0097,0.0098,0,0,0,0,0]}],[{"header":{"parameterUnit":"m.s-1","parameterCategory":2,"la1":30.2991,"la2":30.254,"lo1":-89.0895,"lo2":-89.0444,"dy":0.0017,"dx":0.0017,"nx":28,"ny":28,"refTime":"2024-04-27T21:00:00:Z","depth":"4","parameterNumber":2,"parameterNumberName":"U-component_of_CURRENTS"},"data":[0,0,0,0,0,0,0,0,0,0,0,0,0,0,0,0,0,0,0,0,0,0,0,0,0,0,0,0,0,0,0,0,0,0,0,0,0,0,0,0,0,0,0,0,0,0,0,0,0,0,0,0,0,0,0,0,0,0,0.102,0.1021,0,0.1066,0.1067,0.1067,0.1124,0.1125,0.1126,0.1127,0.1229,0.1231,0.1233,0,0,0,0,0,0,0,0,0,0,0,0,0,0.1005,0.1004,0.102,0.1021,0.1021,0.1066,0.1067,0.1067,0.1124,0.1125,0.1126,0.1127,0.1229,0.1231,0.1233,0,0,0,0,0,0,0,0,0,0,0,0,0,0.1026,0.1004,0.102,0.1056,0.106,0.1066,0.1067,0.1067,0.1124,0.1125,0.1127,0.1128,0.1228,0.1231,0.1233,0.1219,0,0,0.1242,0.1243,0,0,0,0,0,0,0,0,0.1024,0.1026,0.105,0.1054,0.1058,0.1092,0.1099,0.1121,0.1123,0.1098,0.1127,0.1129,0.1188,0.1194,0.1197,0.1224,0.1229,0.1242,0.1243,0.1245,0.1245,0,0,0,0,0,0,0,0.1023,0.1025,0.1037,0.1051,0.1055,0.1078,0.1082,0.1103,0.1134,0.11,0.1105,0.1111,0.1191,0.1194,0.12,0.123,0.1242,0.1244,0.1246,0.1247,0.1356,0.1357,0,0,0,0,0,0,0.1016,0.1023,0.1036,0.1039,0.1046,0.1077,0.1082,0.1078,0.1133,0.1143,0.111,0.1114,0.1189,0.1197,0.1204,0.1277,0.1245,0.1247,0.1249,0.1355,0.1356,0.1358,0,0,0,0,0,0,0.1016,0.1017,0.1034,0.1034,0.1038,0.1076,0.1071,0.1079,0.1111,0.114,0.1151,0.1138,0.119,0.12,0.1248,0.1279,0.1248,0.1251,0.1353,0.1355,0.1357,0.1369,0,0,0,0,0,0,0.1015,0.1016,0.1021,0.1033,0.1037,0.1061,0.107,0.1078,0.1111,0.1117,0.1167,0.1176,0.1192,0.1244,0.1251,0.1282,0.1253,0.1352,0.1354,0.1356,0.1367,0.1371,0.1374,0,0,0,0,0,0.1014,0.1017,0.1021,0.1023,0.104,0.1062,0.1067,0.1098,0.1111,0.1131,0.1163,0.1176,0.1265,0.1247,0.1255,0.1287,0.135,0.1353,0.1356,0.1365,0.137,0.1374,0,0,0,0,0,0,0.1019,0.1023,0.1028,0.1034,0.1056,0.1073,0.1094,0.1109,0.1146,0.116,0.1185,0.1197,0.1253,0.1266,0.1246,0.1327,0.1313,0.1317,0.1317,0.1322,0.1326,0.1331,0.1255,0,0,0,0,0,0.1018,0.1021,0.1033,0.1043,0.1053,0.1075,0.1091,0.1111,0.1139,0.1159,0.1187,0.1225,0.1264,0.1291,0.1322,0.1359,0.1373,0.1389,0.1392,0.1395,0.1406,0.1455,0.1464,0.1367,0.1367,0.1367,0,0,0.102,0.1027,0.1028,0.1045,0.1063,0.1079,0.109,0.1121,0.1141,0.1163,0.1206,0.1239,0.1278,0.1325,0.1352,0.1344,0.1426,0.1399,0.1401,0.141,0.1459,0.1469,0.1477,0.1369,0.1369,0.1369,0,0,0.1027,0.1036,0.1039,0.1059,0.1089,0.1102,0.1115,0.1141,0.1164,0.12,0.1228,0.128,0.1326,0.1364,0.1388,0.1432,0.1444,0.1447,0.1472,0.1519,0.1527,0.1535,0.1542,0.155,0.1449,0.1449,0.1449,0,0.1038,0.1035,0.1049,0.1064,0.1082,0.1113,0.1129,0.1152,0.1192,0.1217,0.1222,0.1317,0.1346,0.1416,0.1434,0.1441,0.1457,0.1447,0.1523,0.1531,0.1539,0.1545,0.1553,0.145,0.145,0.145,0.145,0,0.1037,0.1049,0.106,0.1081,0.1105,0.1129,0.1157,0.1189,0.1217,0.1245,0.1319,0.1359,0.1424,0.1439,0.145,0.1526,0.1514,0.152,0.1508,0.1549,0.1552,0.1561,0.1452,0.1451,0.1451,0.1451,0,0,0.1027,0.1052,0.1058,0.107,0.1117,0.1133,0.1176,0.1221,0.1257,0.1308,0.1359,0.1432,0.147,0.1501,0.1529,0.1567,0.1622,0.1569,0.1571,0.1568,0.1704,0.158,0.1578,0.1644,0.1647,0.1648,0.1676,0,0.1027,0.104,0.1061,0.1092,0.1101,0.115,0.1186,0.1238,0.1284,0.1341,0.1407,0.1471,0.1489,0.1528,0.1576,0.1618,0.165,0.1612,0.1672,0.1673,0.1553,0.1586,0.1655,0.1683,0.1685,0.1687,0.1688,0,0.1015,0.1026,0.1044,0.1089,0.1101,0.1138,0.1207,0.1245,0.1337,0.1374,0.146,0.1509,0.1597,0.1593,0.1696,0.1673,0.1697,0.1713,0.1715,0.1605,0.1567,0.1641,0.1704,0.1703,0.1701,0.17,0.1699,0,0.0977,0.1016,0.1027,0.1044,0.11,0.114,0.1188,0.1271,0.1314,0.1412,0.1458,0.156,0.1624,0.1682,0.1733,0.1726,0.1815,0.1808,0.1713,0.1703,0.1801,0.1793,0.1874,0.1874,0.1874,0.1874,0.1874,0,0.0953,0.0972,0.102,0.1027,0.1075,0.1127,0.1195,0.1253,0.1343,0.1401,0.149,0.154,0.1655,0.1718,0.1747,0.1753,0.1836,0.1721,0.1711,0.1801,0.1793,0.1805,0.1797,0.1875,0.1874,0.1874,0.1874,0,0.0917,0.0939,0.0969,0.1031,0.1059,0.1103,0.1206,0.1247,0.1337,0.1414,0.1451,0.1558,0.1627,0.1704,0.1787,0.176,0.1778,0.1757,0.183,0.1823,0.1625,0.1618,0.1648,0.1644,0.1641,0.1638,0.1636,0,0.0894,0.0898,0.0968,0.0999,0.1042,0.1112,0.1156,0.1244,0.1286,0.1407,0.1433,0.1533,0.1593,0.16,0.1688,0.1719,0.1711,0.17,0.1677,0.1619,0.1607,0.1605,0.1601,0.1631,0.163,0.1629,0.1628,0,0.0863,0.09,0.093,0.0987,0.1041,0.1085,0.1158,0.1173,0.1266,0.1349,0.1374,0.1408,0.1474,0.1524,0.1559,0.1584,0.1696,0.1664,0.1671,0.165,0.1598,0.1589,0.159,0.1616,0.1618,0.1619,0.162,0,0.0866,0.0886,0.0929,0.0976,0.1035,0.1055,0.1089,0.1121,0.1161,0.1271,0.1272,0.1366,0.1449,0.1454,0.1488,0.1498,0.1484,0.1442,0.146,0.1474,0.1407,0.1315,0.1241,0,0,0,0,0,0.0865,0.0876,0.0912,0.0955,0.1004,0.1029,0.1087,0.1114,0.1183,0.1163,0.1211,0.1253,0.129,0.1338,0.1317,0.1439,0.1509,0.1411,0.1475,0.1552,0.1565,0.1505,0,0,0,0,0,0,0.0869,0.0905,0.0899,0.0919,0.0936,0.0975,0.1001,0.1043,0.1028,0.1102,0.1123,0.1179,0.1235,0.1289,0.1294,0.1311,0.1326,0.1466,0.1462,0.1544,0.1556,0.1567,0.151,0,0,0,0,0]},{"header":{"parameterUnit":"m.s-1","parameterCategory":2,"la1":30.2991,"la2":30.254,"lo1":-89.0895,"lo2":-89.0444,"dy":0.0017,"dx":0.0017,"nx":28,"ny":28,"refTime":"2024-04-27T21:00:00:Z","depth":"4","parameterNumber":3,"parameterNumberName":"V-component_of_CURRENTS"},"data":[0,0,0,0,0,0,0,0,0,0,0,0,0,0,0,0,0,0,0,0,0,0,0,0,0,0,0,0,0,0,0,0,0,0,0,0,0,0,0,0,0,0,0,0,0,0,0,0,0,0,0,0,0,0,0,0,0,0,-0.0061,-0.006,0,-0.0053,-0.0053,-0.0053,-0.0074,-0.0074,-0.0075,-0.0075,-0.0088,-0.0088,-0.0088,0,0,0,0,0,0,0,0,0,0,0,0,0,-0.0077,-0.0077,-0.0061,-0.006,-0.006,-0.0053,-0.0053,-0.0053,-0.0074,-0.0074,-0.0075,-0.0076,-0.0088,-0.0088,-0.0088,0,0,0,0,0,0,0,0,0,0,0,0,0,-0.0071,-0.0077,-0.0061,-0.0069,-0.007,-0.0053,-0.0053,-0.0053,-0.0074,-0.0074,-0.0075,-0.0076,-0.0088,-0.0088,-0.0088,-0.0069,0,0,-0.0087,-0.0087,0,0,0,0,0,0,0,0,-0.0071,-0.007,-0.0068,-0.0068,-0.0069,-0.0064,-0.0063,-0.0059,-0.0073,-0.0073,-0.0075,-0.0076,-0.0081,-0.0081,-0.0079,-0.007,-0.0071,-0.0087,-0.0087,-0.0087,-0.0087,0,0,0,0,0,0,0,-0.0071,-0.007,-0.0059,-0.0068,-0.0068,-0.0067,-0.0068,-0.0063,-0.0073,-0.0073,-0.0074,-0.0072,-0.0082,-0.0079,-0.008,-0.0071,-0.0087,-0.0087,-0.0087,-0.0086,-0.0055,-0.0055,0,0,0,0,0,0,-0.007,-0.0071,-0.0059,-0.0058,-0.0071,-0.0066,-0.0067,-0.0066,-0.0073,-0.0075,-0.0071,-0.0073,-0.0079,-0.008,-0.008,-0.0055,-0.0087,-0.0086,-0.0086,-0.0056,-0.0055,-0.0054,0,0,0,0,0,0,-0.0071,-0.0069,-0.0059,-0.0064,-0.0062,-0.0065,-0.0064,-0.0065,-0.0069,-0.0071,-0.0073,-0.0074,-0.008,-0.008,-0.0069,-0.0056,-0.0086,-0.0086,-0.0057,-0.0056,-0.0055,-0.0008,0,0,0,0,0,0,-0.0071,-0.0069,-0.0069,-0.0063,-0.0062,-0.0045,-0.0063,-0.0064,-0.0065,-0.0067,-0.0074,-0.0076,-0.0081,-0.0069,-0.0069,-0.0056,-0.0086,-0.0057,-0.0056,-0.0055,-0.001,-0.0005,-0.0001,0,0,0,0,0,-0.0072,-0.0062,-0.0069,-0.0068,-0.0061,-0.0044,-0.0043,-0.0049,-0.0064,-0.0057,-0.0061,-0.0076,-0.0062,-0.0068,-0.0068,-0.0055,-0.0058,-0.0057,-0.0055,-0.0012,-0.0006,-0.0001,0,0,0,0,0,0,-0.0065,-0.0063,-0.0071,-0.0061,-0.0053,-0.0047,-0.004,-0.0048,-0.0046,-0.0051,-0.0062,-0.0062,-0.0048,-0.0057,-0.0065,-0.0043,-0.0064,-0.0063,-0.0032,-0.0027,-0.0022,-0.0021,-0.0086,0,0,0,0,0,-0.0064,-0.0059,-0.0055,-0.0046,-0.0042,-0.0044,-0.004,-0.0043,-0.0039,-0.004,-0.0044,-0.0047,-0.004,-0.0039,-0.0035,-0.002,-0.0039,-0.0014,-0.0009,-0.0005,-0.0004,-0.0022,-0.002,-0.0049,-0.0049,-0.0049,0,0,-0.0061,-0.0057,-0.0056,-0.0045,-0.0041,-0.0023,-0.0044,-0.0032,-0.0016,-0.004,-0.0022,-0.0029,-0.0032,-0.0014,-0.0009,-0.0021,-0.0005,-0.0003,0.0,-0.0001,-0.0021,-0.0018,-0.0015,-0.0048,-0.0049,-0.0049,0,0,-0.0039,-0.0046,-0.0032,-0.0023,-0.0013,-0.0009,-0.0006,0.0,0.0002,0.002,0.0006,0.0007,0.0017,0.0018,0.002,0.0051,0.002,0.0048,0.0073,0.0055,0.0057,0.0059,0.0044,0.0044,0.0049,0.0049,0.0049,0,-0.0033,-0.0015,-0.0023,-0.0002,0.001,-0.0001,0.0024,0.0031,0.0039,0.0044,0.0031,0.0038,0.0034,0.0054,0.0065,0.0062,0.0044,0.0054,0.0061,0.0062,0.0063,0.0047,0.0046,0.0052,0.0052,0.0051,0.0051,0,0.0002,0.0016,0.0029,0.0049,0.0061,0.0081,0.009,0.01,0.0095,0.0095,0.0107,0.0099,0.0098,0.0099,0.0093,0.0101,0.0085,0.0069,0.0047,0.0068,0.005,0.0049,0.0055,0.0054,0.0054,0.0053,0,0,0.0021,0.0048,0.0052,0.0069,0.0089,0.0105,0.0134,0.0156,0.0167,0.0166,0.0176,0.0184,0.016,0.016,0.0145,0.0132,0.0126,0.0105,0.0103,0.009,0.0086,0.0078,0.0075,0.0108,0.0107,0.0107,0.0073,0,0.0054,0.0099,0.0104,0.0148,0.0173,0.0175,0.0202,0.0216,0.0216,0.0222,0.0207,0.0209,0.0189,0.0182,0.0169,0.0137,0.0123,0.0137,0.0067,0.0065,0.0054,0.0073,0.0107,0.0071,0.0071,0.0071,0.007,0,0.0094,0.0117,0.0163,0.0198,0.0208,0.0231,0.0261,0.0282,0.0286,0.0282,0.0272,0.0251,0.0241,0.0211,0.0169,0.0177,0.0137,0.0107,0.0104,0.0078,0.0053,0.0043,0.0067,0.0067,0.0067,0.0068,0.0068,0,0.0118,0.0162,0.0198,0.0211,0.0247,0.0267,0.0284,0.0298,0.0311,0.031,0.0306,0.0288,0.0273,0.0226,0.0171,0.0165,0.0113,0.0095,0.0051,0.005,0.0046,0.0044,0.0058,0.0058,0.0058,0.0059,0.0059,0,0.0157,0.0188,0.021,0.0232,0.0269,0.0286,0.0318,0.033,0.0339,0.0347,0.033,0.0325,0.0273,0.0237,0.0181,0.0116,0.012,0.0059,0.0042,0.0067,0.0069,0.0045,0.0044,0.0057,0.0058,0.0058,0.0058,0,0.0182,0.02,0.0241,0.0274,0.0282,0.0307,0.0334,0.0347,0.036,0.0368,0.0367,0.0351,0.0311,0.0257,0.0183,0.0132,0.0068,0.0041,0.0081,0.0065,0.0014,0.0015,-0.0011,-0.0011,-0.0012,-0.0012,-0.0012,0,0.0201,0.0223,0.0258,0.0269,0.0283,0.0314,0.0327,0.0352,0.0358,0.0379,0.0375,0.0357,0.0336,0.0232,0.0177,0.0081,0.006,0.0022,0.0013,0.0022,0.0007,0.001,0.0012,-0.0013,-0.0013,-0.0013,-0.0013,0,0.0223,0.023,0.025,0.0268,0.0284,0.0309,0.0328,0.0337,0.0361,0.0382,0.0371,0.0333,0.0293,0.0226,0.0159,0.0086,0.0045,0.0016,0.0017,0.0008,0.0018,0.0005,0.0008,-0.0015,-0.0015,-0.0015,-0.0015,0,0.0223,0.0228,0.0236,0.0249,0.0269,0.0279,0.0307,0.0312,0.0327,0.0352,0.035,0.0322,0.0316,0.0228,0.0164,0.01,0.0074,0.0031,0.003,0.0031,0.0054,0.0074,0.0047,0,0,0,0,0,0.0211,0.0196,0.021,0.0216,0.0237,0.0244,0.0284,0.031,0.0343,0.0328,0.0339,0.0303,0.0228,0.0207,0.0139,0.0146,0.0059,0.0062,0.0007,-0.0024,-0.0022,-0.0003,0,0,0,0,0,0,0.0195,0.0196,0.0192,0.0176,0.0173,0.019,0.0216,0.0249,0.0246,0.0281,0.0248,0.0256,0.019,0.0255,0.0125,0.0111,0.006,0.0041,0.0039,-0.0025,-0.0023,-0.0022,-0.0002,0,0,0,0,0]}]]